Regional Weather Roundup
Issued by NWS

Home | Current Version | Previous Version | Graphics & Text | Print | Product List | Glossary On
Versions: 1 2 3 4 5 6 7 8 9 10 11 12 13 14 15 16 17 18 19 20 21 22 23 24 25 26 27
000
ASUS43 KDMX 201407
RWRIA

WEATHER ROUNDUP FOR IOWA
NATIONAL WEATHER SERVICE DES MOINES IA
900 AM CDT SUN APR 20 2014

NOTE: "FAIR" INDICATES FEW OR NO CLOUDS BELOW 12,000 FEET WITH NO
SIGNIFICANT WEATHER AND/OR OBSTRUCTIONS TO VISIBILITY.

* - THESE STATIONS ARE NOT NWS STATIONS...THUS NOT UNDER NWS
QUALITY CONTROL.  THEY ALSO DO NOT REPORT WEATHER SUCH
AS PRECIPITATION OR FOG.

IAZ001>003-012>014-020>022-031>034-043>046-201500-
   NORTHWEST IOWA

CITY           SKY/WX    TMP DP  RH WIND       PRES   REMARKS
CARROLL *      SUNNY     66  48  52 S17       30.00F
CHEROKEE *     CLOUDY    55  54  94 CALM      30.00R THUNDER
DENISON *      SUNNY     64  48  55 S14       29.99S
LE MARS *      SUNNY     55  50  82 CALM      29.98S
ORANGE CITY *  MOSUNNY   61  45  55 E5        29.99R
SHELDON *      MOSUNNY   57  45  62 NE14      29.98F
SIOUX CITY     PTSUNNY   60  53  77 SE6       29.98S
SPENCER        PTSUNNY   59  48  67 E7        30.00F
STORM LAKE *   SUNNY     55  54  94 S8        30.01R
$$

IAZ055>058-069>071-079>083-090>094-201500-
   SOUTHWEST IOWA

CITY           SKY/WX    TMP DP  RH WIND       PRES   REMARKS
ATLANTIC *     SUNNY     66  50  55 S16       30.01S
AUDUBON *      SUNNY     64  46  52 S14G20    30.02S
CLARINDA *     SUNNY     68  52  56 S13       30.04S
COUNCIL BLFS * SUNNY     66  52  59 S9G17     29.99S
CRESTON *      SUNNY     66  50  55 S20       30.04S
HARLAN  *      SUNNY     64  50  59 S13G18    30.04S
LAMONI         SUNNY     64  47  53 S12       30.07S
RED OAK *      SUNNY     68  50  52 S14       30.01F
SHENANDOAH *   SUNNY     70  50  49 SW14G22   30.02R
$$

IAZ047>049-059>061-072>074-084-201500-
   CENTRAL IOWA

CITY           SKY/WX    TMP DP  RH WIND       PRES   REMARKS
AMES           CLOUDY    58  48  69 S7        30.04S
ANKENY *       PTSUNNY   68  48  49 S10       30.04F
CHARITON *     SUNNY     64  46  52 S14G21    30.07S
DES MOINES     MOSUNNY   66  47  50 S9        30.05S
GRINNELL*      PTSUNNY   63  45  51 S16       30.08S
KNOXVILLE *    SUNNY     66  45  45 S12       30.07S
MARSHALLTOWN   CLOUDY    55  48  77 E7        30.06F
NEWTON *       MOSUNNY   63  45  51 S12       30.07S
PELLA *        SUNNY     66  45  45 S12       30.09S
PERRY *          N/A     68  45  42 SW13G18   30.03S
$$

IAZ004>006-015-016-023>025-035-036-201500-
   NORTH CENTRAL IOWA

CITY           SKY/WX    TMP DP  RH WIND       PRES   REMARKS
ALGONA *       PTSUNNY   57  54  88 S13       30.04S
CLARION *      PTSUNNY   55  50  82 SW6       30.06R
ESTHERVILLE    CLOUDY    54  49  83 CALM      30.02R
FORT DODGE *   CLOUDY    57  48  72 NE3       30.06R
MASON CITY     RAIN      54  52  93 CALM      30.08R FOG
FOREST CITY *  LGT RAIN  54  52  94 S6        30.05R
IOWA FALLS *   CLOUDY    55  48  76 S13       30.06R
$$

IAZ007>011-017>019-026>030-037>042-050>054-066-201500-
   NORTHEAST IOWA

CITY           SKY/WX    TMP DP  RH WIND       PRES   REMARKS
CEDAR RAPIDS   PTSUNNY   61  43  51 S14       30.10S
CHARLES CITY * CLOUDY    54  50  87 S7        30.07S
CLINTON *      PTSUNNY   57  39  51 S10       30.17R
DECORAH *      LGT RAIN  54  48  82 S6        30.09R
DUBUQUE        PTSUNNY   58  40  51 S18       30.12S
MONTICELLO *   SUNNY     61  43  51 S12       30.11F
OELWEIN *      MOSUNNY  N/A N/A N/A S9        30.10R
WATERLOO       CLOUDY    54  48  80 SE7       30.07S
$$

IAZ064-065-067-068-078-201500-
   EAST CENTRAL IOWA

CITY           SKY/WX    TMP DP  RH WIND       PRES   REMARKS
DAVENPORT      PTSUNNY   64  40  41 S17       30.14S
IOWA CITY      PTSUNNY   60  46  59 SE3       30.13S
MT. PLEASANT * SUNNY     66  41  39 S14       30.13F
MUSCATINE *    SUNNY     63  45  51 S7        30.13S
QUAD CITIES    MOSUNNY   65  39  38 S13       30.14R
$$

IAZ062-063-075>077-085>089-095>099-201500-
   SOUTHEAST IOWA

CITY           SKY/WX    TMP DP  RH WIND       PRES   REMARKS
BURLINGTON     SUNNY     65  44  46 SW13      30.14S
FAIRFIELD *    SUNNY     64  43  45 S12G18    30.11F
FORT MADISON * SUNNY     64  45  48 S10       30.14F
KEOKUK *       SUNNY     64  43  45 S12G20    30.13S
OSKALOOSA *      N/A     63  45  51 S13       30.09F
CENTERVILLE *  SUNNY     64  46  52 S10       30.11S
OTTUMWA        SUNNY     63  43  48 S15       30.09F
WASHINGTON *   SUNNY     66  43  42 S13       30.11F
$$

ABBREVIATIONS USED IN REMARKS
   TC - TEMPERATURES IN CELSIUS
  WCI - WIND CHILL INDEX
   HX - HEAT INDEX
  VSB - VISIBILITY
$$




USA.gov is the U.S. government's official web portal to all federal, state and local government web resources and services.